This is the latest recevied weather packets stored in our database for station/object KC9NPJ-13. If no packets are shown the sender has not sent any weather packets the latest 10 day(s).
| Time | Temp. | Humidity | Pressure | Rain* | Wind** | Luminosity | Snow |
|---|---|---|---|---|---|---|---|
| 1777662858 | 15° C | 55% | 1018.7 hPa | 0 mm | - | - | - |
| 1777662558 | 15° C | 53% | 1018.8 hPa | 0 mm | - | - | - |
| 1777662258 | 15.56° C | 55% | 1018.7 hPa | 0 mm | - | - | - |
| 1777661958 | 15° C | 52% | 1018.7 hPa | 0 mm | - | - | - |
| 1777661658 | 15° C | 51% | 1018.9 hPa | 0 mm | - | - | - |
| 1777661358 | 15° C | 56% | 1018.8 hPa | 0 mm | - | - | - |
| 1777661058 | 14.44° C | 55% | 1018.9 hPa | 0 mm | - | - | - |
| 1777660758 | 13.89° C | 53% | 1018.8 hPa | 0 mm | - | - | - |
| 1777660458 | 13.89° C | 54% | 1018.9 hPa | 0 mm | - | - | - |
| 1777660158 | 13.89° C | 51% | 1018.9 hPa | 0 mm | - | - | - |
| 1777659858 | 13.89° C | 55% | 1018.8 hPa | 0 mm | - | - | - |
| 1777659558 | 14.44° C | 53% | 1018.8 hPa | 0 mm | - | - | - |
| 1777659258 | 14.44° C | 56% | 1019 hPa | 0 mm | - | - | - |
| 1777658958 | 14.44° C | 56% | 1019 hPa | 0 mm | - | - | - |
| 1777658658 | 14.44° C | 52% | 1019 hPa | 0 mm | - | - | - |
| 1777658358 | 14.44° C | 55% | 1018.9 hPa | 0 mm | - | - | - |
| 1777658058 | 14.44° C | 55% | 1018.7 hPa | 0 mm | - | - | - |
| 1777657758 | 15° C | 50% | 1018.8 hPa | 0 mm | - | - | - |
| 1777657458 | 14.44° C | 56% | 1018.8 hPa | 0 mm | - | - | - |
| 1777657158 | 14.44° C | 56% | 1018.8 hPa | 0 mm | - | - | - |
| 1777656858 | 15° C | 56% | 1018.7 hPa | 0 mm | - | - | - |
| 1777656558 | 15° C | 54% | 1018.7 hPa | 0 mm | - | - | - |
| 1777656258 | 15° C | 55% | 1018.7 hPa | 0 mm | - | - | - |
| 1777655958 | 14.44° C | 54% | 1018.7 hPa | 0 mm | - | - | - |
| 1777655658 | 14.44° C | 56% | 1018.6 hPa | 0 mm | - | - | - |
* Rain latest hour (hover to see other rain measurements)
** Current wind speed in m/s (hover to see current wind gust speed)